Time,TemperatureF,DewpointF,PressureIn,WindDirection,WindDirectionDegrees,WindSpeedMPH,WindSpeedGustMPH,Humidity,HourlyPrecipIn,Conditions,Clouds,dailyrainin,SoftwareType,DateUTC
2013-05-25 00:00:00,49.6,44.8,30.34,SE,138,1.0,5.0,83,0.00,,,0.16,meteohub,2013-05-25 07:00:00,
2013-05-25 00:05:00,49.6,45.0,30.34,SW,229,0.0,5.0,84,0.00,,,0.00,meteohub,2013-05-25 07:05:00,
2013-05-25 00:10:00,49.5,44.8,30.34,SW,222,5.0,5.0,84,0.00,,,0.00,meteohub,2013-05-25 07:10:00,
2013-05-25 00:16:00,49.6,45.0,30.34,WSW,242,5.0,5.0,84,0.00,,,0.00,meteohub,2013-05-25 07:16:00,
2013-05-25 00:21:00,49.8,45.1,30.34,SW,236,2.0,8.0,84,0.00,,,0.00,meteohub,2013-05-25 07:21:00,
2013-05-25 00:26:00,50.0,45.0,30.34,SW,221,5.0,8.0,83,0.00,,,0.00,meteohub,2013-05-25 07:26:00,
2013-05-25 00:31:00,50.2,45.1,30.34,SW,221,6.0,8.0,83,0.00,,,0.00,meteohub,2013-05-25 07:31:00,
2013-05-25 00:36:00,50.2,45.1,30.34,SW,236,1.0,7.0,83,0.00,,,0.00,meteohub,2013-05-25 07:36:00,
2013-05-25 00:41:00,50.2,45.1,30.34,SSW,205,2.0,10.0,83,0.00,,,0.00,meteohub,2013-05-25 07:41:00,
2013-05-25 00:46:00,50.4,45.1,30.34,WSW,256,5.0,10.0,82,0.00,,,0.00,meteohub,2013-05-25 07:46:00,
2013-05-25 00:51:00,50.4,45.1,30.34,SW,233,3.0,10.0,82,0.00,,,0.00,meteohub,2013-05-25 07:51:00,
2013-05-25 00:56:00,50.5,45.3,30.34,WSW,242,6.0,10.0,82,0.00,,,0.00,meteohub,2013-05-25 07:56:00,
2013-05-25 01:01:00,50.7,45.1,30.34,West,259,5.0,10.0,81,0.00,,,0.00,meteohub,2013-05-25 08:01:00,
2013-05-25 01:06:00,50.9,45.3,30.34,SW,230,3.0,8.0,81,0.00,,,0.00,meteohub,2013-05-25 08:06:00,
2013-05-25 01:11:00,50.9,45.3,30.34,WNW,295,2.0,8.0,81,0.00,,,0.00,meteohub,2013-05-25 08:11:00,
2013-05-25 01:16:00,50.9,45.3,30.34,SW,223,3.0,8.0,81,0.00,,,0.00,meteohub,2013-05-25 08:16:00,
2013-05-25 01:22:00,50.7,45.5,30.34,WSW,253,4.0,7.0,82,0.00,,,0.00,meteohub,2013-05-25 08:22:00,
2013-05-25 01:27:00,50.5,45.3,30.34,SW,229,2.0,7.0,82,0.00,,,0.00,meteohub,2013-05-25 08:27:00,
2013-05-25 01:32:00,50.5,45.3,30.34,WSW,251,2.0,7.0,82,0.00,,,0.00,meteohub,2013-05-25 08:32:00,
2013-05-25 01:37:00,50.5,45.3,30.34,West,263,3.0,7.0,82,0.00,,,0.00,meteohub,2013-05-25 08:37:00,
2013-05-25 01:42:00,50.5,45.3,30.34,WNW,291,3.0,8.0,82,0.00,,,0.00,meteohub,2013-05-25 08:42:00,
2013-05-25 01:47:00,50.4,45.3,30.33,WNW,283,2.0,8.0,83,0.00,,,0.00,meteohub,2013-05-25 08:47:00,
2013-05-25 01:52:00,50.2,45.1,30.33,SW,232,1.0,8.0,83,0.00,,,0.00,meteohub,2013-05-25 08:52:00,
2013-05-25 01:57:00,50.0,45.0,30.33,SW,227,1.0,8.0,83,0.00,,,0.00,meteohub,2013-05-25 08:57:00,
2013-05-25 02:02:00,49.8,44.8,30.33,SSW,203,0.0,6.0,83,0.00,,,0.00,meteohub,2013-05-25 09:02:00,
2013-05-25 02:07:00,49.6,45.0,30.33,SSW,207,1.0,6.0,84,0.00,,,0.00,meteohub,2013-05-25 09:07:00,
2013-05-25 02:12:00,49.5,44.8,30.33,SW,221,1.0,6.0,84,0.00,,,0.00,meteohub,2013-05-25 09:12:00,
2013-05-25 02:17:00,48.9,44.1,30.33,SSW,194,2.0,5.0,83,0.00,,,0.00,meteohub,2013-05-25 09:17:00,
2013-05-25 02:22:00,47.8,43.0,30.33,SSE,163,2.0,5.0,83,0.00,,,0.00,meteohub,2013-05-25 09:22:00,
2013-05-25 02:27:00,47.3,42.8,30.33,SSE,161,1.0,4.0,84,0.00,,,0.00,meteohub,2013-05-25 09:27:00,
2013-05-25 02:32:00,46.9,42.6,30.33,SSE,152,2.0,4.0,85,0.00,,,0.00,meteohub,2013-05-25 09:32:00,
2013-05-25 02:37:00,47.1,42.8,30.33,SSE,164,2.0,4.0,85,0.00,,,0.00,meteohub,2013-05-25 09:37:00,
2013-05-25 02:42:00,47.1,42.8,30.33,SSE,155,0.0,4.0,85,0.00,,,0.00,meteohub,2013-05-25 09:42:00,
2013-05-25 02:47:00,46.8,42.4,30.32,SSE,155,0.0,4.0,85,0.00,,,0.00,meteohub,2013-05-25 09:47:00,
2013-05-25 02:52:00,46.8,42.8,30.32,WSW,240,0.0,2.0,86,0.00,,,0.00,meteohub,2013-05-25 09:52:00,
2013-05-25 02:57:00,46.9,43.0,30.32,SW,226,1.0,1.0,86,0.00,,,0.00,meteohub,2013-05-25 09:57:00,
2013-05-25 03:02:00,47.1,43.2,30.32,WSW,239,1.0,1.0,86,0.00,,,0.00,meteohub,2013-05-25 10:02:00,
2013-05-25 03:07:00,47.1,43.2,30.32,SW,235,0.0,1.0,86,0.00,,,0.00,meteohub,2013-05-25 10:07:00,
2013-05-25 03:12:00,47.1,43.2,30.32,SW,234,0.0,1.0,86,0.00,,,0.00,meteohub,2013-05-25 10:12:00,
2013-05-25 03:17:00,47.1,43.2,30.32,WNW,294,1.0,1.0,86,0.00,,,0.00,meteohub,2013-05-25 10:17:00,
2013-05-25 03:22:00,47.3,43.3,30.32,SW,226,1.0,3.0,86,0.00,,,0.00,meteohub,2013-05-25 10:22:00,
2013-05-25 03:27:00,47.5,43.5,30.33,WSW,242,0.0,3.0,86,0.00,,,0.00,meteohub,2013-05-25 10:27:00,
2013-05-25 03:32:00,46.9,42.6,30.33,SE,138,1.0,3.0,85,0.00,,,0.00,meteohub,2013-05-25 10:32:00,
2013-05-25 03:38:00,46.0,42.1,30.33,South,171,0.0,3.0,86,0.00,,,0.00,meteohub,2013-05-25 10:38:00,
2013-05-25 03:43:00,45.3,41.4,30.33,ESE,105,1.0,3.0,86,0.00,,,0.00,meteohub,2013-05-25 10:43:00,
2013-05-25 03:48:00,45.0,41.0,30.33,NNE,27,1.0,3.0,86,0.00,,,0.00,meteohub,2013-05-25 10:48:00,
2013-05-25 03:53:00,44.8,40.8,30.33,NNE,32,0.0,3.0,86,0.00,,,0.00,meteohub,2013-05-25 10:53:00,
2013-05-25 03:58:00,44.8,40.8,30.33,SE,129,0.0,2.0,86,0.00,,,0.00,meteohub,2013-05-25 10:58:00,
2013-05-25 04:03:00,44.6,40.5,30.33,East,86,1.0,3.0,85,0.00,,,0.00,meteohub,2013-05-25 11:03:00,
2013-05-25 04:08:00,44.4,39.9,30.33,ESE,102,1.0,3.0,84,0.00,,,0.00,meteohub,2013-05-25 11:08:00,
2013-05-25 04:13:00,44.4,39.9,30.33,ESE,105,0.0,2.0,84,0.00,,,0.00,meteohub,2013-05-25 11:13:00,
2013-05-25 04:18:00,44.4,39.9,30.33,SE,137,0.0,2.0,84,0.00,,,0.00,meteohub,2013-05-25 11:18:00,
2013-05-25 04:23:00,44.2,39.7,30.33,SE,138,0.0,2.0,84,0.00,,,0.00,meteohub,2013-05-25 11:23:00,
2013-05-25 04:28:00,44.2,39.7,30.33,SE,138,0.0,2.0,84,0.00,,,0.00,meteohub,2013-05-25 11:28:00,
2013-05-25 04:33:00,44.4,39.9,30.34,ESE,103,1.0,1.0,84,0.00,,,0.00,meteohub,2013-05-25 11:33:00,
2013-05-25 04:38:00,44.4,39.6,30.33,ESE,116,0.0,1.0,83,0.00,,,0.00,meteohub,2013-05-25 11:38:00,
2013-05-25 04:44:00,44.8,40.3,30.33,ESE,115,0.0,2.0,84,0.00,,,0.00,meteohub,2013-05-25 11:44:00,
2013-05-25 04:49:00,44.8,40.3,30.34,ESE,116,0.0,2.0,84,0.00,,,0.00,meteohub,2013-05-25 11:49:00,
2013-05-25 04:54:00,45.0,40.6,30.33,East,90,0.0,1.0,85,0.00,,,0.00,meteohub,2013-05-25 11:54:00,
2013-05-25 04:59:00,45.1,40.8,30.33,ESE,106,1.0,3.0,85,0.00,,,0.00,meteohub,2013-05-25 11:59:00,
2013-05-25 05:04:00,45.5,41.2,30.33,NW,323,0.0,3.0,85,0.00,,,0.00,meteohub,2013-05-25 12:04:00,
2013-05-25 05:09:00,45.7,41.4,30.34,ESE,107,1.0,3.0,85,0.00,,,0.00,meteohub,2013-05-25 12:09:00,
2013-05-25 05:14:00,45.9,41.5,30.34,East,91,5.0,5.0,85,0.00,,,0.00,meteohub,2013-05-25 12:14:00,
2013-05-25 05:19:00,45.9,41.4,30.34,WNW,294,0.0,2.0,84,0.00,,,0.00,meteohub,2013-05-25 12:19:00,
2013-05-25 05:24:00,45.9,41.5,30.34,NNE,32,0.0,5.0,85,0.00,,,0.00,meteohub,2013-05-25 12:24:00,
2013-05-25 05:29:00,45.9,41.4,30.34,NE,53,1.0,5.0,84,0.00,,,0.00,meteohub,2013-05-25 12:29:00,
2013-05-25 05:34:00,45.7,41.4,30.34,NE,48,0.0,3.0,85,0.00,,,0.00,meteohub,2013-05-25 12:34:00,
2013-05-25 05:39:00,45.3,41.0,30.34,ESE,102,0.0,2.0,85,0.00,,,0.00,meteohub,2013-05-25 12:39:00,
2013-05-25 05:44:00,45.3,40.8,30.34,ENE,75,0.0,2.0,84,0.00,,,0.00,meteohub,2013-05-25 12:44:00,
2013-05-25 05:49:00,45.3,40.8,30.34,ESE,118,1.0,2.0,84,0.00,,,0.00,meteohub,2013-05-25 12:49:00,
2013-05-25 05:55:00,45.3,40.8,30.34,ENE,72,0.0,2.0,84,0.00,,,0.00,meteohub,2013-05-25 12:55:00,
2013-05-25 06:00:00,45.1,40.8,30.34,East,90,0.0,2.0,85,0.00,,,0.00,meteohub,2013-05-25 13:00:00,
2013-05-25 06:05:00,45.1,40.6,30.34,SE,128,0.0,2.0,84,0.00,,,0.00,meteohub,2013-05-25 13:05:00,
2013-05-25 06:10:00,45.3,40.8,30.34,NNW,338,1.0,2.0,84,0.00,,,0.00,meteohub,2013-05-25 13:10:00,
2013-05-25 06:15:00,45.3,40.8,30.34,East,86,0.0,2.0,84,0.00,,,0.00,meteohub,2013-05-25 13:15:00,
2013-05-25 06:20:00,45.5,41.0,30.34,NE,49,1.0,2.0,84,0.00,,,0.00,meteohub,2013-05-25 13:20:00,
2013-05-25 06:25:00,45.3,41.0,30.35,NE,48,0.0,2.0,85,0.00,,,0.00,meteohub,2013-05-25 13:25:00,
2013-05-25 06:30:00,45.3,41.0,30.35,East,95,0.0,2.0,85,0.00,,,0.00,meteohub,2013-05-25 13:30:00,
2013-05-25 06:35:00,45.3,41.0,30.35,NNE,23,1.0,2.0,85,0.00,,,0.00,meteohub,2013-05-25 13:35:00,
2013-05-25 06:40:00,45.3,41.0,30.35,NE,50,0.0,2.0,85,0.00,,,0.00,meteohub,2013-05-25 13:40:00,
2013-05-25 06:45:00,45.7,41.7,30.34,NNE,26,1.0,2.0,86,0.00,,,0.00,meteohub,2013-05-25 13:45:00,
2013-05-25 06:50:00,46.0,42.1,30.35,NNE,17,0.0,2.0,86,0.00,,,0.00,meteohub,2013-05-25 13:50:00,
2013-05-25 06:55:00,47.1,43.2,30.35,NNE,13,0.0,2.0,86,0.00,,,0.00,meteohub,2013-05-25 13:55:00,
2013-05-25 07:00:00,47.8,43.9,30.35,NE,38,1.0,2.0,86,0.00,,,0.00,meteohub,2013-05-25 14:00:00,
2013-05-25 07:06:00,48.0,44.1,30.35,NNE,32,1.0,3.0,86,0.00,,,0.00,meteohub,2013-05-25 14:06:00,
2013-05-25 07:11:00,48.4,44.1,30.34,NE,53,1.0,3.0,85,0.00,,,0.00,meteohub,2013-05-25 14:11:00,
2013-05-25 07:16:00,48.6,43.9,30.35,NNE,28,3.0,3.0,84,0.00,,,0.00,meteohub,2013-05-25 14:16:00,
2013-05-25 07:21:00,48.0,43.7,30.35,NNE,24,2.0,5.0,85,0.00,,,0.00,meteohub,2013-05-25 14:21:00,
2013-05-25 07:26:00,48.2,44.2,30.35,ENE,61,0.0,5.0,86,0.00,,,0.00,meteohub,2013-05-25 14:26:00,
2013-05-25 07:31:00,48.9,44.6,30.34,ESE,107,0.0,5.0,85,0.00,,,0.00,meteohub,2013-05-25 14:31:00,
2013-05-25 07:36:00,48.7,44.1,30.34,NE,44,3.0,4.0,84,0.00,,,0.00,meteohub,2013-05-25 14:36:00,
2013-05-25 07:41:00,48.7,44.4,30.34,NNE,27,0.0,4.0,85,0.00,,,0.00,meteohub,2013-05-25 14:41:00,
2013-05-25 07:46:00,49.1,44.4,30.34,NNW,337,3.0,4.0,84,0.00,,,0.00,meteohub,2013-05-25 14:46:00,
2013-05-25 07:51:00,48.9,44.2,30.34,NE,37,0.0,4.0,84,0.00,,,0.00,meteohub,2013-05-25 14:51:00,
2013-05-25 07:56:00,49.3,45.0,30.34,NNW,339,1.0,4.0,85,0.00,,,0.00,meteohub,2013-05-25 14:56:00,
2013-05-25 08:01:00,49.3,44.6,30.34,NE,49,0.0,4.0,84,0.00,,,0.00,meteohub,2013-05-25 15:01:00,
2013-05-25 08:06:00,49.5,45.1,30.35,NE,46,0.0,4.0,85,0.00,,,0.00,meteohub,2013-05-25 15:06:00,
2013-05-25 08:11:00,49.6,45.0,30.34,NE,38,3.0,4.0,84,0.00,,,0.00,meteohub,2013-05-25 15:11:00,
2013-05-25 08:17:00,49.8,45.1,30.34,East,80,0.0,5.0,84,0.00,,,0.00,meteohub,2013-05-25 15:17:00,
2013-05-25 08:22:00,50.5,45.9,30.34,SSW,205,0.0,6.0,84,0.00,,,0.00,meteohub,2013-05-25 15:22:00,
2013-05-25 08:27:00,51.1,46.0,30.34,ENE,57,1.0,6.0,83,0.00,,,0.00,meteohub,2013-05-25 15:27:00,
2013-05-25 08:32:00,51.3,46.2,30.34,ESE,105,1.0,6.0,83,0.00,,,0.00,meteohub,2013-05-25 15:32:00,
2013-05-25 08:37:00,52.0,46.9,30.34,WNW,288,1.0,4.0,83,0.00,,,0.00,meteohub,2013-05-25 15:37:00,
2013-05-25 08:42:00,52.2,46.8,30.34,NNW,329,4.0,7.0,82,0.00,,,0.00,meteohub,2013-05-25 15:42:00,
2013-05-25 08:47:00,52.3,46.9,30.34,WNW,288,3.0,7.0,82,0.00,,,0.00,meteohub,2013-05-25 15:47:00,
2013-05-25 08:52:00,52.5,47.1,30.34,SW,217,4.0,7.0,82,0.00,,,0.00,meteohub,2013-05-25 15:52:00,
2013-05-25 08:57:00,52.5,46.6,30.34,WNW,288,4.0,7.0,80,0.00,,,0.00,meteohub,2013-05-25 15:57:00,
2013-05-25 09:02:00,52.5,46.9,30.34,SW,214,4.0,8.0,81,0.00,,,0.00,meteohub,2013-05-25 16:02:00,
2013-05-25 09:07:00,52.5,46.9,30.34,SW,235,2.0,8.0,81,0.00,,,0.00,meteohub,2013-05-25 16:07:00,
2013-05-25 09:12:00,52.9,46.9,30.34,SW,229,9.0,9.0,80,0.00,,,0.00,meteohub,2013-05-25 16:12:00,
2013-05-25 09:17:00,53.1,47.1,30.33,West,267,5.0,11.0,80,0.00,,,0.00,meteohub,2013-05-25 16:17:00,
2013-05-25 09:22:00,53.4,46.8,30.33,SW,229,1.0,11.0,78,0.00,,,0.00,meteohub,2013-05-25 16:22:00,
2013-05-25 09:27:00,54.0,46.6,30.33,West,264,2.0,11.0,76,0.00,,,0.00,meteohub,2013-05-25 16:27:00,
2013-05-25 09:32:00,54.3,46.9,30.32,West,280,4.0,9.0,76,0.00,,,0.00,meteohub,2013-05-25 16:32:00,
2013-05-25 09:37:00,54.7,46.9,30.32,WSW,239,0.0,9.0,75,0.00,,,0.00,meteohub,2013-05-25 16:37:00,
2013-05-25 09:42:00,54.9,46.8,30.33,West,275,8.0,9.0,74,0.00,,,0.00,meteohub,2013-05-25 16:42:00,
2013-05-25 09:47:00,54.9,47.1,30.32,SW,231,5.0,12.0,75,0.00,,,0.00,meteohub,2013-05-25 16:47:00,
2013-05-25 09:52:00,54.5,46.4,30.33,West,262,4.0,12.0,74,0.00,,,0.00,meteohub,2013-05-25 16:52:00,
2013-05-25 09:57:00,54.5,46.8,30.33,WNW,288,6.0,10.0,75,0.00,,,0.00,meteohub,2013-05-25 16:57:00,
2013-05-25 10:02:00,54.7,46.6,30.32,WNW,283,4.0,10.0,74,0.00,,,0.00,meteohub,2013-05-25 17:02:00,
2013-05-25 10:07:00,54.9,46.8,30.32,WNW,292,3.0,10.0,74,0.00,,,0.00,meteohub,2013-05-25 17:07:00,
2013-05-25 10:13:00,55.8,47.3,30.32,NW,323,2.0,9.0,73,0.00,,,0.00,meteohub,2013-05-25 17:13:00,
2013-05-25 10:18:00,56.3,47.5,30.32,SW,232,2.0,9.0,72,0.00,,,0.00,meteohub,2013-05-25 17:18:00,
2013-05-25 10:23:00,56.5,47.1,30.32,SSW,211,4.0,9.0,71,0.00,,,0.00,meteohub,2013-05-25 17:23:00,
2013-05-25 10:28:00,56.1,46.4,30.32,NW,310,4.0,8.0,70,0.00,,,0.00,meteohub,2013-05-25 17:28:00,
2013-05-25 10:33:00,56.7,46.6,30.32,SW,230,4.0,9.0,69,0.00,,,0.00,meteohub,2013-05-25 17:33:00,
2013-05-25 10:38:00,56.8,46.8,30.32,NW,304,4.0,12.0,69,0.00,,,0.00,meteohub,2013-05-25 17:38:00,
2013-05-25 10:43:00,57.0,46.9,30.32,SW,231,2.0,12.0,69,0.00,,,0.00,meteohub,2013-05-25 17:43:00,
2013-05-25 10:48:00,57.9,47.8,30.32,West,280,4.0,12.0,69,0.00,,,0.00,meteohub,2013-05-25 17:48:00,
2013-05-25 10:53:00,57.6,46.8,30.32,WSW,254,5.0,12.0,67,0.00,,,0.00,meteohub,2013-05-25 17:53:00,
2013-05-25 10:58:00,57.9,47.5,30.31,SW,233,9.0,15.0,68,0.00,,,0.00,meteohub,2013-05-25 17:58:00,
2013-05-25 11:03:00,58.5,46.8,30.31,West,267,5.0,15.0,65,0.00,,,0.00,meteohub,2013-05-25 18:03:00,
2013-05-25 11:08:00,58.3,46.2,30.31,West,275,4.0,12.0,64,0.00,,,0.00,meteohub,2013-05-25 18:08:00,
2013-05-25 11:13:00,58.5,47.5,30.31,NW,311,4.0,12.0,67,0.00,,,0.00,meteohub,2013-05-25 18:13:00,
2013-05-25 11:18:00,59.2,47.8,30.31,West,267,8.0,12.0,66,0.00,,,0.00,meteohub,2013-05-25 18:18:00,
2013-05-25 11:24:00,59.0,47.7,30.31,WNW,289,6.0,10.0,66,0.00,,,0.00,meteohub,2013-05-25 18:24:00,
2013-05-25 11:29:00,58.5,47.5,30.31,WNW,295,3.0,11.0,67,0.00,,,0.00,meteohub,2013-05-25 18:29:00,
2013-05-25 11:34:00,58.3,48.6,30.31,NW,308,2.0,12.0,70,0.00,,,0.00,meteohub,2013-05-25 18:34:00,
2013-05-25 11:39:00,58.3,46.6,30.31,WNW,294,3.0,13.0,65,0.00,,,0.00,meteohub,2013-05-25 18:39:00,
2013-05-25 11:44:00,58.5,47.5,30.31,WNW,298,3.0,13.0,67,0.00,,,0.00,meteohub,2013-05-25 18:44:00,
2013-05-25 11:49:00,59.2,47.5,30.31,WSW,253,3.0,13.0,65,0.00,,,0.00,meteohub,2013-05-25 18:49:00,
2013-05-25 11:54:00,59.2,47.5,30.31,WSW,250,2.0,11.0,65,0.00,,,0.00,meteohub,2013-05-25 18:54:00,
2013-05-25 11:59:00,59.0,46.8,30.31,WNW,303,8.0,11.0,64,0.00,,,0.00,meteohub,2013-05-25 18:59:00,
2013-05-25 12:04:00,59.4,47.1,30.31,West,271,2.0,11.0,64,0.00,,,0.00,meteohub,2013-05-25 19:04:00,
2013-05-25 12:09:00,59.9,47.7,30.30,SW,236,8.0,11.0,64,0.00,,,0.00,meteohub,2013-05-25 19:09:00,
2013-05-25 12:14:00,60.6,48.0,30.30,WSW,245,8.0,11.0,63,0.00,,,0.00,meteohub,2013-05-25 19:14:00,
2013-05-25 12:19:00,60.4,46.4,30.30,NW,311,1.0,10.0,60,0.00,,,0.00,meteohub,2013-05-25 19:19:00,
2013-05-25 12:24:00,60.6,46.2,30.30,WNW,294,4.0,13.0,59,0.00,,,0.00,meteohub,2013-05-25 19:24:00,
2013-05-25 12:29:00,60.4,46.4,30.30,WSW,247,3.0,13.0,60,0.00,,,0.00,meteohub,2013-05-25 19:29:00,
2013-05-25 12:35:00,60.8,46.8,30.30,WSW,251,5.0,14.0,60,0.00,,,0.00,meteohub,2013-05-25 19:35:00,
2013-05-25 12:40:00,61.2,45.9,30.30,WSW,257,3.0,14.0,57,0.00,,,0.00,meteohub,2013-05-25 19:40:00,
2013-05-25 12:45:00,61.7,45.9,30.30,WNW,288,3.0,12.0,56,0.00,,,0.00,meteohub,2013-05-25 19:45:00,
2013-05-25 12:50:00,62.2,46.8,30.29,WNW,290,3.0,12.0,57,0.00,,,0.00,meteohub,2013-05-25 19:50:00,
2013-05-25 12:55:00,62.2,46.4,30.30,SW,224,12.0,12.0,56,0.00,,,0.00,meteohub,2013-05-25 19:55:00,
2013-05-25 13:00:00,62.2,45.3,30.29,WNW,303,3.0,12.0,54,0.00,,,0.00,meteohub,2013-05-25 20:00:00,
2013-05-25 13:05:00,62.4,45.5,30.30,West,268,5.0,14.0,54,0.00,,,0.00,meteohub,2013-05-25 20:05:00,
2013-05-25 13:10:00,62.4,46.0,30.29,WNW,288,8.0,14.0,55,0.00,,,0.00,meteohub,2013-05-25 20:10:00,
2013-05-25 13:15:00,62.8,46.4,30.29,WNW,292,6.0,14.0,55,0.00,,,0.00,meteohub,2013-05-25 20:15:00,
2013-05-25 13:20:00,62.2,46.4,30.29,WNW,285,8.0,14.0,56,0.00,,,0.00,meteohub,2013-05-25 20:20:00,
2013-05-25 13:25:00,62.1,46.2,30.29,WSW,238,3.0,14.0,56,0.00,,,0.00,meteohub,2013-05-25 20:25:00,
2013-05-25 13:30:00,61.9,46.0,30.29,WNW,300,7.0,13.0,56,0.00,,,0.00,meteohub,2013-05-25 20:30:00,
2013-05-25 13:35:00,61.5,45.7,30.29,SW,225,5.0,12.0,56,0.00,,,0.00,meteohub,2013-05-25 20:35:00,
2013-05-25 13:40:00,62.2,45.3,30.29,West,267,8.0,11.0,54,0.00,,,0.00,meteohub,2013-05-25 20:40:00,
2013-05-25 13:46:00,62.1,45.1,30.29,SW,234,4.0,11.0,54,0.00,,,0.00,meteohub,2013-05-25 20:46:00,
2013-05-25 13:51:00,62.2,45.3,30.29,SW,222,5.0,14.0,54,0.00,,,0.00,meteohub,2013-05-25 20:51:00,
2013-05-25 13:56:00,62.4,46.0,30.29,SW,227,8.0,14.0,55,0.00,,,0.00,meteohub,2013-05-25 20:56:00,
2013-05-25 14:01:00,63.1,45.7,30.28,West,265,3.0,15.0,53,0.00,,,0.00,meteohub,2013-05-25 21:01:00,
2013-05-25 14:06:00,63.9,46.4,30.28,NW,325,8.0,15.0,53,0.00,,,0.00,meteohub,2013-05-25 21:06:00,
2013-05-25 14:11:00,63.3,45.3,30.28,WNW,303,7.0,17.0,52,0.00,,,0.00,meteohub,2013-05-25 21:11:00,
2013-05-25 14:16:00,63.3,45.9,30.28,WSW,250,9.0,17.0,53,0.00,,,0.00,meteohub,2013-05-25 21:16:00,
2013-05-25 14:21:00,63.7,45.7,30.28,WNW,286,5.0,17.0,52,0.00,,,0.00,meteohub,2013-05-25 21:21:00,
2013-05-25 14:26:00,63.7,45.7,30.27,WNW,292,4.0,15.0,52,0.00,,,0.00,meteohub,2013-05-25 21:26:00,
2013-05-25 14:31:00,63.9,45.9,30.27,West,270,5.0,14.0,52,0.00,,,0.00,meteohub,2013-05-25 21:31:00,
2013-05-25 14:36:00,64.0,45.0,30.27,WNW,283,3.0,14.0,50,0.00,,,0.00,meteohub,2013-05-25 21:36:00,
2013-05-25 14:42:00,64.0,45.0,30.27,WNW,286,6.0,14.0,50,0.00,,,0.00,meteohub,2013-05-25 21:42:00,
2013-05-25 14:47:00,64.6,46.6,30.27,West,274,7.0,14.0,52,0.00,,,0.00,meteohub,2013-05-25 21:47:00,
2013-05-25 14:52:00,64.8,45.7,30.27,WSW,245,8.0,14.0,50,0.00,,,0.00,meteohub,2013-05-25 21:52:00,
2013-05-25 14:57:00,64.6,45.5,30.27,WSW,241,6.0,14.0,50,0.00,,,0.00,meteohub,2013-05-25 21:57:00,
2013-05-25 15:02:00,64.6,45.5,30.27,SW,236,10.0,12.0,50,0.00,,,0.00,meteohub,2013-05-25 22:02:00,
2013-05-25 15:07:00,64.6,46.0,30.26,WSW,256,5.0,13.0,51,0.00,,,0.00,meteohub,2013-05-25 22:07:00,
2013-05-25 15:12:00,64.9,45.9,30.26,West,278,4.0,14.0,50,0.00,,,0.00,meteohub,2013-05-25 22:12:00,
2013-05-25 15:17:00,64.9,45.9,30.26,SW,229,9.0,14.0,50,0.00,,,0.00,meteohub,2013-05-25 22:17:00,
2013-05-25 15:22:00,64.9,45.9,30.26,SW,230,4.0,14.0,50,0.00,,,0.00,meteohub,2013-05-25 22:22:00,
2013-05-25 15:27:00,64.9,45.9,30.26,WSW,253,5.0,14.0,50,0.00,,,0.00,meteohub,2013-05-25 22:27:00,
2013-05-25 15:32:00,65.1,46.0,30.25,WSW,240,4.0,15.0,50,0.00,,,0.00,meteohub,2013-05-25 22:32:00,
2013-05-25 15:37:00,65.8,46.8,30.25,WNW,283,4.0,15.0,50,0.00,,,0.00,meteohub,2013-05-25 22:37:00,
2013-05-25 15:42:00,65.8,46.2,30.25,WNW,292,10.0,15.0,49,0.00,,,0.00,meteohub,2013-05-25 22:42:00,
2013-05-25 15:47:00,65.5,45.3,30.25,WSW,242,7.0,13.0,48,0.00,,,0.00,meteohub,2013-05-25 22:47:00,
2013-05-25 15:52:00,65.5,46.4,30.25,WNW,300,2.0,13.0,50,0.00,,,0.00,meteohub,2013-05-25 22:52:00,
2013-05-25 15:57:00,65.7,46.6,30.25,WSW,248,12.0,13.0,50,0.00,,,0.00,meteohub,2013-05-25 22:57:00,
2013-05-25 16:02:00,65.7,46.6,30.25,WNW,297,11.0,12.0,50,0.00,,,0.00,meteohub,2013-05-25 23:02:00,
2013-05-25 16:07:00,65.8,46.2,30.25,WSW,241,8.0,12.0,49,0.00,,,0.00,meteohub,2013-05-25 23:07:00,
2013-05-25 16:12:00,65.5,46.4,30.25,WSW,250,6.0,12.0,50,0.00,,,0.00,meteohub,2013-05-25 23:12:00,
2013-05-25 16:17:00,65.5,45.9,30.25,SW,224,5.0,12.0,49,0.00,,,0.00,meteohub,2013-05-25 23:17:00,
2013-05-25 16:22:00,65.7,46.0,30.25,WNW,300,4.0,12.0,49,0.00,,,0.00,meteohub,2013-05-25 23:22:00,
2013-05-25 16:27:00,65.7,46.0,30.24,West,259,8.0,11.0,49,0.00,,,0.00,meteohub,2013-05-25 23:27:00,
2013-05-25 16:32:00,66.2,46.4,30.24,WSW,242,4.0,11.0,49,0.00,,,0.00,meteohub,2013-05-25 23:32:00,
2013-05-25 16:37:00,66.6,46.8,30.24,West,267,9.0,11.0,49,0.00,,,0.00,meteohub,2013-05-25 23:37:00,
2013-05-25 16:42:00,66.6,46.8,30.24,WNW,284,3.0,11.0,49,0.00,,,0.00,meteohub,2013-05-25 23:42:00,
2013-05-25 16:48:00,66.4,45.5,30.24,SW,214,5.0,12.0,47,0.00,,,0.00,meteohub,2013-05-25 23:48:00,
2013-05-25 16:53:00,66.2,45.9,30.24,WNW,283,9.0,13.0,48,0.00,,,0.00,meteohub,2013-05-25 23:53:00,
2013-05-25 16:58:00,66.0,46.4,30.24,West,277,7.0,13.0,49,0.00,,,0.00,meteohub,2013-05-25 23:58:00,
2013-05-25 17:03:00,66.4,46.0,30.23,West,281,8.0,13.0,48,0.00,,,0.00,meteohub,2013-05-26 00:03:00,
2013-05-25 17:08:00,66.4,46.0,30.23,SW,233,4.0,13.0,48,0.00,,,0.00,meteohub,2013-05-26 00:08:00,
2013-05-25 17:13:00,66.6,46.2,30.23,West,268,4.0,12.0,48,0.00,,,0.00,meteohub,2013-05-26 00:13:00,
2013-05-25 17:18:00,66.6,45.7,30.23,WSW,242,5.0,12.0,47,0.00,,,0.00,meteohub,2013-05-26 00:18:00,
2013-05-25 17:23:00,66.6,46.2,30.23,WNW,300,6.0,12.0,48,0.00,,,0.00,meteohub,2013-05-26 00:23:00,
2013-05-25 17:28:00,66.4,46.0,30.22,WSW,253,5.0,12.0,48,0.00,,,0.00,meteohub,2013-05-26 00:28:00,
2013-05-25 17:33:00,66.2,46.4,30.22,WSW,242,5.0,12.0,49,0.00,,,0.00,meteohub,2013-05-26 00:33:00,
2013-05-25 17:38:00,66.4,46.6,30.23,NW,321,3.0,11.0,49,0.00,,,0.00,meteohub,2013-05-26 00:38:00,
2013-05-25 17:43:00,66.7,47.5,30.22,NW,309,3.0,11.0,50,0.00,,,0.00,meteohub,2013-05-26 00:43:00,
2013-05-25 17:48:00,66.9,46.6,30.22,NNE,13,2.0,11.0,48,0.00,,,0.00,meteohub,2013-05-26 00:48:00,
2013-05-25 17:54:00,66.9,46.0,30.22,West,279,5.0,12.0,47,0.00,,,0.00,meteohub,2013-05-26 00:54:00,
2013-05-25 17:59:00,66.6,46.2,30.22,West,272,1.0,12.0,48,0.00,,,0.00,meteohub,2013-05-26 00:59:00,
2013-05-25 18:04:00,66.0,46.4,30.22,WNW,300,1.0,8.0,49,0.00,,,0.00,meteohub,2013-05-26 01:04:00,
2013-05-25 18:09:00,65.8,46.2,30.22,West,273,0.0,8.0,49,0.00,,,0.00,meteohub,2013-05-26 01:09:00,
2013-05-25 18:14:00,65.7,46.0,30.22,SSW,210,4.0,7.0,49,0.00,,,0.00,meteohub,2013-05-26 01:14:00,
2013-05-25 18:19:00,65.5,45.9,30.22,NW,304,3.0,6.0,49,0.00,,,0.00,meteohub,2013-05-26 01:19:00,
2013-05-25 18:24:00,65.5,45.9,30.22,WSW,249,7.0,8.0,49,0.00,,,0.00,meteohub,2013-05-26 01:24:00,
2013-05-25 18:29:00,65.3,45.7,30.22,West,275,3.0,11.0,49,0.00,,,0.00,meteohub,2013-05-26 01:29:00,
2013-05-25 18:34:00,65.5,45.9,30.22,WNW,288,2.0,11.0,49,0.00,,,0.00,meteohub,2013-05-26 01:34:00,
2013-05-25 18:39:00,65.7,46.6,30.22,NW,313,3.0,11.0,50,0.00,,,0.00,meteohub,2013-05-26 01:39:00,
2013-05-25 18:45:00,66.2,46.9,30.22,West,263,4.0,9.0,50,0.00,,,0.00,meteohub,2013-05-26 01:45:00,
2013-05-25 18:50:00,65.7,46.6,30.22,WSW,258,3.0,8.0,50,0.00,,,0.00,meteohub,2013-05-26 01:50:00,
2013-05-25 18:55:00,65.3,46.8,30.22,WSW,256,1.0,9.0,51,0.00,,,0.00,meteohub,2013-05-26 01:55:00,
2013-05-25 19:00:00,65.1,46.6,30.22,West,271,4.0,9.0,51,0.00,,,0.00,meteohub,2013-05-26 02:00:00,
2013-05-25 19:05:00,65.5,46.4,30.22,SW,214,2.0,9.0,50,0.00,,,0.00,meteohub,2013-05-26 02:05:00,
2013-05-25 19:10:00,65.5,46.4,30.22,SW,227,6.0,7.0,50,0.00,,,0.00,meteohub,2013-05-26 02:10:00,
2013-05-25 19:15:00,65.5,46.4,30.22,WSW,253,3.0,7.0,50,0.00,,,0.00,meteohub,2013-05-26 02:15:00,
2013-05-25 19:20:00,65.5,46.4,30.22,West,267,3.0,7.0,50,0.00,,,0.00,meteohub,2013-05-26 02:20:00,
2013-05-25 19:25:00,65.5,46.9,30.22,West,261,3.0,7.0,51,0.00,,,0.00,meteohub,2013-05-26 02:25:00,
2013-05-25 19:30:00,65.3,46.8,30.22,WSW,240,4.0,7.0,51,0.00,,,0.00,meteohub,2013-05-26 02:30:00,
2013-05-25 19:35:00,65.1,46.6,30.22,WSW,244,2.0,7.0,51,0.00,,,0.00,meteohub,2013-05-26 02:35:00,
2013-05-25 19:40:00,64.8,46.2,30.22,West,260,2.0,7.0,51,0.00,,,0.00,meteohub,2013-05-26 02:40:00,
2013-05-25 19:45:00,64.8,46.8,30.22,West,271,1.0,7.0,52,0.00,,,0.00,meteohub,2013-05-26 02:45:00,
2013-05-25 19:51:00,64.8,46.8,30.22,SSW,205,1.0,7.0,52,0.00,,,0.00,meteohub,2013-05-26 02:51:00,
2013-05-25 19:56:00,64.6,47.1,30.22,WSW,244,2.0,6.0,53,0.00,,,0.00,meteohub,2013-05-26 02:56:00,
2013-05-25 20:01:00,64.2,46.8,30.22,WSW,241,1.0,5.0,53,0.00,,,0.00,meteohub,2013-05-26 03:01:00,
2013-05-25 20:06:00,64.0,46.6,30.22,West,275,5.0,5.0,53,0.00,,,0.00,meteohub,2013-05-26 03:06:00,
2013-05-25 20:11:00,63.9,46.4,30.21,WSW,246,1.0,6.0,53,0.00,,,0.00,meteohub,2013-05-26 03:11:00,
2013-05-25 20:16:00,63.7,46.8,30.21,SSW,210,1.0,6.0,54,0.00,,,0.00,meteohub,2013-05-26 03:16:00,
2013-05-25 20:21:00,63.3,46.4,30.21,WSW,245,1.0,6.0,54,0.00,,,0.00,meteohub,2013-05-26 03:21:00,
2013-05-25 20:26:00,63.0,46.6,30.21,WSW,253,0.0,5.0,55,0.00,,,0.00,meteohub,2013-05-26 03:26:00,
2013-05-25 20:31:00,62.8,46.4,30.21,WSW,238,1.0,5.0,55,0.00,,,0.00,meteohub,2013-05-26 03:31:00,
2013-05-25 20:36:00,62.4,46.6,30.21,WSW,257,1.0,3.0,56,0.00,,,0.00,meteohub,2013-05-26 03:36:00,
2013-05-25 20:41:00,62.2,46.4,30.21,West,273,2.0,2.0,56,0.00,,,0.00,meteohub,2013-05-26 03:41:00,
2013-05-25 20:47:00,62.1,46.6,30.21,SW,229,2.0,7.0,57,0.00,,,0.00,meteohub,2013-05-26 03:47:00,
2013-05-25 20:52:00,61.9,46.9,30.21,SW,230,3.0,7.0,58,0.00,,,0.00,meteohub,2013-05-26 03:52:00,
2013-05-25 20:57:00,61.5,46.6,30.21,WSW,240,1.0,7.0,58,0.00,,,0.00,meteohub,2013-05-26 03:57:00,
2013-05-25 21:01:00,61.3,46.9,30.20,SW,224,0.0,4.0,59,0.00,,,0.00,meteohub,2013-05-26 04:01:00,
2013-05-25 21:02:00,61.3,46.9,30.21,SW,234,1.0,4.0,59,0.00,,,0.00,meteohub,2013-05-26 04:02:00,
2013-05-25 21:06:00,61.2,46.8,30.21,SW,227,0.0,4.0,59,0.00,,,0.00,meteohub,2013-05-26 04:06:00,
2013-05-25 21:07:00,61.0,46.6,30.21,SW,222,1.0,4.0,59,0.00,,,0.00,meteohub,2013-05-26 04:07:00,
2013-05-25 21:12:00,61.0,46.6,30.21,SW,233,0.0,4.0,59,0.00,,,0.00,meteohub,2013-05-26 04:12:00,
2013-05-25 21:14:00,61.0,46.6,30.21,SW,217,0.0,4.0,59,0.00,,,0.00,meteohub,2013-05-26 04:14:00,
2013-05-25 21:19:00,60.6,46.6,30.21,SW,217,0.0,4.0,60,0.00,,,0.00,meteohub,2013-05-26 04:19:00,
2013-05-25 21:24:00,60.3,46.8,30.21,SW,217,0.0,4.0,61,0.00,,,0.00,meteohub,2013-05-26 04:24:00,
2013-05-25 21:29:00,59.9,46.8,30.21,SW,217,0.0,2.0,62,0.00,,,0.00,meteohub,2013-05-26 04:29:00,
2013-05-25 21:34:00,59.5,47.3,30.22,WSW,245,5.0,5.0,64,0.00,,,0.00,meteohub,2013-05-26 04:34:00,
2013-05-25 21:39:00,59.4,47.7,30.22,WSW,244,1.0,3.0,65,0.00,,,0.00,meteohub,2013-05-26 04:39:00,
2013-05-25 21:44:00,59.2,47.8,30.22,SSW,205,2.0,5.0,66,0.00,,,0.00,meteohub,2013-05-26 04:44:00,
2013-05-25 21:49:00,59.0,48.0,30.22,WSW,240,2.0,5.0,67,0.00,,,0.00,meteohub,2013-05-26 04:49:00,
2013-05-25 21:55:00,59.0,48.0,30.22,WSW,238,2.0,5.0,67,0.00,,,0.00,meteohub,2013-05-26 04:55:00,
2013-05-25 22:00:00,58.8,47.8,30.22,WSW,245,1.0,7.0,67,0.00,,,0.00,meteohub,2013-05-26 05:00:00,
2013-05-25 22:05:00,58.6,48.2,30.22,WSW,250,2.0,7.0,68,0.00,,,0.00,meteohub,2013-05-26 05:05:00,
2013-05-25 22:10:00,58.5,48.0,30.22,South,171,0.0,7.0,68,0.00,,,0.00,meteohub,2013-05-26 05:10:00,
2013-05-25 22:15:00,58.3,48.2,30.22,SW,227,3.0,7.0,69,0.00,,,0.00,meteohub,2013-05-26 05:15:00,
2013-05-25 22:20:00,58.3,48.2,30.22,SW,223,7.0,7.0,69,0.00,,,0.00,meteohub,2013-05-26 05:20:00,
2013-05-25 22:25:00,58.3,48.2,30.22,WSW,240,1.0,7.0,69,0.00,,,0.00,meteohub,2013-05-26 05:25:00,
2013-05-25 22:30:00,58.3,48.2,30.22,SW,214,2.0,9.0,69,0.00,,,0.00,meteohub,2013-05-26 05:30:00,
2013-05-25 22:35:00,58.1,48.4,30.22,SSW,194,2.0,9.0,70,0.00,,,0.00,meteohub,2013-05-26 05:35:00,
2013-05-25 22:40:00,57.9,48.2,30.22,WSW,246,1.0,6.0,70,0.00,,,0.00,meteohub,2013-05-26 05:40:00,
2013-05-25 22:45:00,57.9,47.8,30.22,SSW,192,1.0,6.0,69,0.00,,,0.00,meteohub,2013-05-26 05:45:00,
2013-05-25 22:51:00,57.9,47.8,30.22,SE,143,0.0,6.0,69,0.00,,,0.00,meteohub,2013-05-26 05:51:00,
2013-05-25 22:56:00,57.7,47.7,30.22,SSW,194,0.0,4.0,69,0.00,,,0.00,meteohub,2013-05-26 05:56:00,
2013-05-25 23:01:00,57.7,47.7,30.22,SW,233,0.0,3.0,69,0.00,,,0.00,meteohub,2013-05-26 06:01:00,
2013-05-25 23:06:00,57.7,47.7,30.22,SW,233,1.0,3.0,69,0.00,,,0.00,meteohub,2013-05-26 06:06:00,
2013-05-25 23:11:00,57.9,47.8,30.22,West,272,0.0,4.0,69,0.00,,,0.00,meteohub,2013-05-26 06:11:00,
2013-05-25 23:16:00,57.7,48.0,30.22,NNE,17,0.0,4.0,70,0.00,,,0.00,meteohub,2013-05-26 06:16:00,
2013-05-25 23:21:00,57.6,48.2,30.22,NNE,17,0.0,3.0,71,0.00,,,0.00,meteohub,2013-05-26 06:21:00,
2013-05-25 23:26:00,57.2,47.8,30.22,WNW,300,0.0,2.0,71,0.00,,,0.00,meteohub,2013-05-26 06:26:00,
2013-05-25 23:31:00,57.0,48.0,30.22,WNW,300,0.0,1.0,72,0.00,,,0.00,meteohub,2013-05-26 06:31:00,
2013-05-25 23:36:00,56.8,47.8,30.22,NW,319,1.0,1.0,72,0.00,,,0.00,meteohub,2013-05-26 06:36:00,
2013-05-25 23:41:00,56.8,48.2,30.22,WNW,286,0.0,2.0,73,0.00,,,0.00,meteohub,2013-05-26 06:41:00,
2013-05-25 23:46:00,56.7,48.0,30.22,West,281,0.0,2.0,73,0.00,,,0.00,meteohub,2013-05-26 06:46:00,
2013-05-25 23:51:00,56.7,48.0,30.22,WNW,292,0.0,2.0,73,0.00,,,0.00,meteohub,2013-05-26 06:51:00,
2013-05-25 23:56:00,56.5,48.0,30.22,WNW,294,0.0,1.0,73,0.00,,,0.00,meteohub,2013-05-26 06:56:00,